Regional Weather Roundup
Issued by NWS

Home | Current Version | Previous Version | Text Only | Print | Product List | Glossary Off
Versions: 1 2 3 4 5 6 7 8 9 10 11 12 13 14 15 16 17 18 19 20 21 22 23 24 25 26 27 28 29 30 31 32 33 34 35 36 37 38 39 40 41 42 43 44 45 46 47 48 49 50

550
ASUS43 KIND 310259
RWRIN

WEATHER ROUNDUP FOR INDIANA
NATIONAL WEATHER SERVICE INDIANAPOLIS IN
1100 PM EDT TUE AUG 30 2016

NOTE: "FAIR" INDICATES FEW OR NO CLOUDS BELOW 12,000 FEET WITH NO
SIGNIFICANT WEATHER AND/OR OBSTRUCTIONS TO VISIBILITY.

* - STATION DOES NOT REPORT WEATHER SUCH AS PRECIPITATION OR FOG.

+ - STATION NOT QUALITY CONTROLLED BY THE NATIONAL WEATHER SERVICE.
    USE DATA WITH CAUTION...ESPECIALLY DEWPOINT AND RELATIVE
    HUMIDITY OBSERVATIONS.

INZ001>003-010>013-019-020-310400-
NORTHWEST INDIANA

CITY           SKY/WX    TMP DP  RH WIND       PRES   REMARKS
GARY /AIRPORT/ MOCLDY    72  72 100 CALM      30.06S
KNOX *+        PTCLDY    70  55  60 CALM      30.06R
MONTICELLO +   PTCLDY    72  68  86 S3        30.06S
RENSSELAER +   MOCLDY    72  72 100 CALM      30.06F

$$

LMZ046-743>745-310400-
SOUTHERN LAKE MICHIGAN

STATION/POSITION TIME  TEMP    WIND        PRES    WAVE
                       AIR SEA DIR/SP/G            HT
                 (UTC) (F)     (DEG/KT/KT) (MB)    (FT)
BURNS HARBOR     0200   74      40/  1/  5 1017.9R
MICHIGAN CITY    0200   73     340/  3/  3   N/A
5NW MICH CITY    0200   75 75   20/  2/  4   N/A     1

$$

INZ004-005-014>016-021>024-310400-
NORTH CENTRAL INDIANA

CITY           SKY/WX    TMP DP  RH WIND       PRES   REMARKS
GOSHEN         MOCLDY    71  68  90 S5        30.07R
PERU/GRISSOM   PTCLDY    71  71 100 S7        30.07S
SOUTH BEND     MOCLDY    73  69  87 S5        30.07R

$$

INZ006>009-017-018-025>027-310400-
NORTHEAST INDIANA

CITY           SKY/WX    TMP DP  RH WIND       PRES   REMARKS
ANGOLA *+      CLEAR     70  63  78 S3        30.08S
FORT WAYNE     CLOUDY    71  69  93 S6        30.08F

$$

INZ028-029-035-036-043>045-051>053-310400-
WEST CENTRAL INDIANA

CITY           SKY/WX    TMP DP  RH WIND       PRES   REMARKS
CRAWFORDSVL +  CLOUDY    68  68 100 SE3       30.08F
GREENCASTLE +  CLOUDY    72  72 100 CALM      30.09S
LAFAYETTE      PTCLDY    72  71  97 CALM      30.06S
TERRE HAUTE    CLOUDY    71  68  90 CALM      30.08R

$$

INZ030>032-037>040-046>048-054>057-064-065-310400-
CENTRAL INDIANA

CITY           SKY/WX    TMP DP  RH WIND       PRES   REMARKS
INDIANAPOLIS   LGT RAIN  73  71  93 E7        30.08F
-EAGLE CREEK   CLOUDY    74  70  87 SE5       30.08F
KOKOMO *+      CLOUDY    70  70 100 S5        30.08S
MT COMFORT *+  CLOUDY    70  70 100 SE5       30.09F
SHELBYVILLE    HVY RAIN  72  68  87 S3        30.10R FOG

$$

INZ033-034-041-042-049-050-058-059-310400-
EAST CENTRAL INDIANA

CITY           SKY/WX    TMP DP  RH WIND       PRES   REMARKS
MUNCIE         CLOUDY    72  70  93 SE6       30.09F

$$

INZ060-061-067>069-081>083-085>088-310400-
SOUTHWEST INDIANA

CITY           SKY/WX    TMP DP  RH WIND       PRES   REMARKS
EVANSVILLE     CLEAR     79  72  79 CALM      30.04R
HUNTINGBURG *+ PTCLDY    75  70  83 N3        30.05R

$$

INZ062-063-066-070>080-084-089>092-310400-
SOUTH CENTRAL AND SOUTHEAST INDIANA

CITY           SKY/WX    TMP DP  RH WIND       PRES   REMARKS
BLOOMINGTON    LGT RAIN  72  68  87 N10       30.09F
MADISON *+     CLEAR     72  70  94 CALM      30.08F

$$





USA.gov is the U.S. government's official web portal to all federal, state and local government web resources and services.